Pablo Ortega fue el más rápido en la primera tanda de entrenamientos de la Clase 2 del Turismo Nacional, en el marco de la séptima fecha de la temporada. El piloto tucumano marcó un tiempo de 1:36.104 para ser la referencia inicial con el Fiat Argo que atiende el TB Racing.

En el Autódromo de Concepción del Uruguay, el segundo lugar quedó en manos de Juan Martín Eluchans, a 4 centésimas; mientras que Renzo Blotta finalizó en el tercer puesto, a 9 centésimas de la punta.

Por su parte, las diez primeras posiciones las completaron Juan Ignacio Canela, Marcos Fernández, Lucas Tedeschi, Emanuel Abdala, Gerónimo Núñez, Christian Bodrato Mionetto y Juan Manuel Damiani.

    1er. Entrenamiento TN Clase 2 – Concepción del Uruguay    

Pos. Piloto Marca Vtas. Tiempo Dif.
1 114 PABLO ORTEGA FIAT ARGO 12 1:36.104
2 150 JUAN MARTIN ELUCHANS NISSAN MARCH 5 1:36.153 0.049
3 89 RENZO BLOTTA TOYOTA ETIOS 7 1:36.203 0.099
4 80 JUAN I. CANELA VW TREND 13 1:36.232 0.128
5 22 MARCOS FERNANDEZ NISSAN MARCH 12 1:36.352 0.248
6 4 LUCAS TEDESCHI TOYOTA ETIOS 13 1:36.384 0.280
7 2 EMANUEL ABDALA FIESTA KINETIC 10 1:36.449 0.345
8 3 GERONIMO NUÑEZ TOYOTA ETIOS 9 1:36.518 0.414
9 113 CHRISTIAN BODRATO MIONETT TOYOTA ETIOS 11 1:36.559 0.455
10 93 JUAN DAMIANI TOYOTA ETIOS 12 1:36.682 0.578
11 35 SERGIO FERNANDEZ NISSAN MARCH 11 1:36.735 0.631
12 21 FERNANDO GOMEZ FREDES TOYOTA ETIOS 13 1:36.755 0.651
13 15 MIGUEL CIAURRO VW TREND 15 1:36.904 0.800
14 61 FACUNDO BUSTOS VW TREND 12 1:36.926 0.822
15 12 MAXIMILIANO BESTANI FIESTA KINETIC 11 1:36.959 0.855
16 79 MARCO VERONESI TOYOTA ETIOS 10 1:36.985 0.881
17 116 ALEJANDRO TORRISI NISSAN MARCH 13 1:36.992 0.888
18 55 MARCELO GUEVARA NISSAN MARCH 12 1:37.011 0.907
19 28 MATEO NUÑEZ NISSAN MARCH 11 1:37.075 0.971
20 199 JUAN I. TORRES CHEVROLET CORSA 12 1:37.285 1.181
21 84 LUCAS YEROBI FIESTA KINETIC 10 1:37.362 1.258
22 14 IGNACIO PROCACITTO VW TREND 7 1:37.385 1.281
23 98 ALEX CONCI FIESTA KINETIC 10 1:37.507 1.403
24 30 VALDERREY ALEJANDRO TOYOTA ETIOS 12 1:37.644 1.540
25 10 ALEJO BORGIANI VW TREND 13 1:37.696 1.592
26 7 FACUNDO LEANEZ TOYOTA ETIOS 12 1:37.708 1.604
27 82 JUAN PABLO AQUILES VW TREND 14 1:37.751 1.647
28 163 NICOLAS BULICH FIESTA KINETIC 13 1:37.826 1.722
29 23 DAMIAN KIRSTEIN PEUGEOT 208 8 1:37.846 1.742
30 154 FACUNDO ROTONDO FIESTA KINETIC 12 1:38.231 2.127
31 16 DIEGO LEANEZ TOYOTA ETIOS 9 1:38.292 2.188
32 36 SANDRO ABDALA TOYOTA ETIOS 13 1:38.639 2.535
33 121 NAZARENO BEGUIRISTAIN TOYOTA ETIOS 12 1:39.384 3.280
34 87 DANIEL VAZQUEZ FIESTA KINETIC 11 1:42.221 6.117

S.B